Location: Jackson Park
(37.2862°N, 79.9123°W)
Time: 12:08:15
(UTC+00:00)

Vanguard 2 - Pass Details

Date: 12 May 2026
Orbit: 553 x 2894 km, 32.9° (Epoch: 11 June)

Event Time Altitude Azimuth Distance (km) Brightness Sun altitude
Rises 07:38:02 0° 235° (SW) 6,551 - -25.2°
Reaches altitude 10° 07:42:21 10° 231° (SW) 5,647 - -24.7°
Exits shadow 07:49:53 31° 220° (SW) 4,177 10.6 -23.8°
Maximum altitude 07:59:24 58° 159° (SSE) 3,073 10.3 -22.5°
Drops below altitude 10° 08:13:18 10° 85° (E) 4,709 12.2 -20.6°
Sets 08:16:31 0° 82° (E) 5,446 12.7 -20.1°
